TimeEDT,TemperatureF,Dew PointF,Humidity,Sea Level PressureIn,VisibilityMPH,Wind Direction,Wind SpeedMPH,Gust SpeedMPH,PrecipitationIn,Events,Conditions,WindDirDegrees,DateUTC
12:28 AM,69.8,66.2,88,-9999,10.0,SE,3.5,-,0.01,,Overcast,130,2013-10-05 04:28:00
12:53 AM,69.1,66.0,90,-9999,10.0,SSE,4.6,-,0.01,,Partly Cloudy,150,2013-10-05 04:53:00
1:53 AM,66.9,64.9,93,-9999,10.0,SSE,4.6,-,N/A,,Clear,160,2013-10-05 05:53:00
2:53 AM,68.0,64.9,90,-9999,9.0,SSE,5.8,-,N/A,,Clear,150,2013-10-05 06:53:00
3:53 AM,66.9,64.9,93,-9999,8.0,South,4.6,-,N/A,,Scattered Clouds,170,2013-10-05 07:53:00
4:53 AM,66.9,64.9,93,-9999,7.0,South,5.8,-,N/A,,Scattered Clouds,180,2013-10-05 08:53:00
5:53 AM,66.9,64.9,93,30.00,5.0,Calm,Calm,-,0.01,,Partly Cloudy,0,2013-10-05 09:53:00
6:45 AM,66.2,64.4,94,30.00,5.0,Calm,Calm,-,N/A,,Overcast,0,2013-10-05 10:45:00
6:53 AM,66.9,64.9,93,30.02,4.0,Calm,Calm,-,N/A,,Overcast,0,2013-10-05 10:53:00
7:19 AM,66.2,64.4,94,30.00,4.0,East,4.6,-,N/A,,Overcast,100,2013-10-05 11:19:00
7:53 AM,66.9,64.9,93,30.01,2.0,East,4.6,-,N/A,,Overcast,100,2013-10-05 11:53:00
8:01 AM,66.2,64.4,94,30.00,1.5,East,4.6,-,N/A,,Overcast,90,2013-10-05 12:01:00
8:53 AM,68.0,66.0,93,30.01,1.5,East,5.8,-,N/A,,Overcast,100,2013-10-05 12:53:00
9:26 AM,66.2,64.4,94,30.00,3.0,East,6.9,-,N/A,,Overcast,100,2013-10-05 13:26:00
9:53 AM,68.0,64.9,90,30.01,3.0,ESE,4.6,-,N/A,,Overcast,120,2013-10-05 13:53:00
10:53 AM,69.1,64.9,87,30.01,5.0,SE,5.8,-,N/A,,Overcast,140,2013-10-05 14:53:00
11:53 AM,70.0,66.9,90,30.01,3.0,SE,4.6,-,N/A,,Overcast,140,2013-10-05 15:53:00
12:53 PM,70.0,66.9,90,29.97,2.0,SSE,5.8,-,N/A,,Overcast,150,2013-10-05 16:53:00
1:01 PM,69.8,66.2,88,29.98,2.0,SSE,3.5,-,N/A,,Overcast,160,2013-10-05 17:01:00
1:53 PM,72.0,68.0,87,29.95,2.0,South,5.8,-,0.00,,Overcast,170,2013-10-05 17:53:00
2:53 PM,75.9,68.0,76,29.93,5.0,South,8.1,-,N/A,,Haze,170,2013-10-05 18:53:00
3:53 PM,77.0,68.0,74,29.90,5.0,South,12.7,21.9,N/A,,Haze,180,2013-10-05 19:53:00
4:53 PM,75.9,68.0,76,29.88,7.0,South,12.7,-,N/A,,Mostly Cloudy,180,2013-10-05 20:53:00
5:53 PM,73.9,66.9,79,29.87,10.0,South,12.7,19.6,N/A,,Mostly Cloudy,180,2013-10-05 21:53:00
6:53 PM,73.0,68.0,84,29.88,10.0,South,6.9,-,0.00,Rain,Light Rain,170,2013-10-05 22:53:00
7:00 PM,73.4,68.0,83,29.88,10.0,South,5.8,-,0.00,,Partly Cloudy,170,2013-10-05 23:00:00
7:53 PM,72.0,68.0,87,29.86,10.0,SSE,5.8,-,0.00,Rain,Light Rain,150,2013-10-05 23:53:00
8:26 PM,73.4,66.2,78,29.86,10.0,SSE,5.8,-,0.01,,Mostly Cloudy,160,2013-10-06 00:26:00
8:33 PM,71.6,66.2,83,29.86,10.0,SSE,5.8,-,0.01,,Mostly Cloudy,160,2013-10-06 00:33:00
8:44 PM,71.6,66.2,83,29.86,10.0,South,5.8,-,0.01,,Mostly Cloudy,170,2013-10-06 00:44:00
8:53 PM,72.0,68.0,87,29.85,10.0,SSE,5.8,-,0.01,,Mostly Cloudy,160,2013-10-06 00:53:00
9:06 PM,71.6,68.0,88,29.86,10.0,South,6.9,-,N/A,,Scattered Clouds,170,2013-10-06 01:06:00
9:53 PM,71.1,64.9,81,29.87,10.0,SSW,12.7,21.9,N/A,,Mostly Cloudy,200,2013-10-06 01:53:00
10:53 PM,68.0,64.0,87,29.85,7.0,South,10.4,-,0.02,Rain,Heavy Rain,190,2013-10-06 02:53:00
11:53 PM,66.9,64.9,93,29.82,10.0,South,10.4,-,0.06,Rain,Light Rain,180,2013-10-06 03:53:00